Вернуться в каталог

SL-8 R/B

АктивенPO
NORAD 17160·ROCKET BODY·🇷🇺 Russia

Запущен Nov 24, 1986 с Plesetsk Cosmodrome

Loading…

Ближайшие Пролёты (ближайшие 24 часа)

TLE

СвежийSource: Space-Track

Эпоха: Sep 14, 2026, 18:50 UTC

1 17160U 86093B   26257.78520041 -.00000088  00000-0 -10866-3 0  9992
2 17160  82.9234  78.9907 0040095  96.8123 274.1710 13.74931170996521

Отслеживайте SL-8 R/B в реальном времени с AllMySat

Download on the App Store